Retour au catalogue

YZ-1 R/B

ActifMEO
NORAD 43109·ROCKET BODY·🇨🇳 China

Lancé Jan 11, 2018 depuis Xichang Satellite Launch Center

Loading…

Prochains Passages (prochaines 24 heures)

TLE

FraisSource: Space-Track

Époque: Sep 12, 2026, 18:50 UTC

1 43109U 18003C   26255.78473636 -.00000064  00000-0  00000-0 0  9994
2 43109  54.5423 309.4918 0125415  44.4838 316.5878  1.78158426 56422

Suivez YZ-1 R/B en temps réel avec AllMySat

Download on the App Store